Location: Champignolles
(47.0543°N, 4.5663°E)
Time: 05:19:16
(UTC+00:00)

N. Korean satellite - Pass Details

Date: 09 December 2021
Orbit: 447 x 491 km, 97.3° (Epoch: 25 January)

Event Time Altitude Azimuth Distance (km) Brightness Sun altitude
Rises 03:59:58 0° 30° (NNE) 2,461 10.5 -32.3°
Reaches altitude 10° 04:02:45 10° 56° (ENE) 1,581 9.8 -31.8°
Maximum altitude 04:04:42 14° 91° (E) 1,330 9.5 -31.5°
Drops below altitude 10° 04:06:37 10° 127° (SE) 1,576 9.8 -31.2°
Sets 04:09:23 0° 152° (SSE) 2,445 10.5 -30.7°
